Temp
73 72 71 69 68 67 67 67 67 68 69 70 71 71 71 71 71 69 69 71 71 70 71 70 69 70 71 73 74 73 72 70 63 68 70 69 67 66 70 71 71 70 71
71 69 68 67 66 62 62 63 64 67 68 68 69 69 70 70 70 68 68 69 69 68 69 68 68 71 68 68 67 64 64 66 63 61 65 66 65 67 67 65 68 71 69
69 66 64 62 61 59 59 59 62 64 66 67 68 67 68 68 67 67 67 67 67 67 67 67 67 67 64 64 63 61 64 67 67 63 61 65 65 66 64 65 65 67 69
69 66 63 62 60 60 60 59 61 62 64 65 66 66 67 66 67 67 67 65 65 66 66 66 65 65 64 63 62 62 65 62 61 59 59 59 61 65 63 61 63 67 67
66 64 63 62 63 62 60 61 62 62 64 64 65 65 66 65 67 61 60 61 62 64 65 66 67 65 59 59 62 62 61 61 61 61 60 60 61 62 62 64 62 63 65
61 58 61 62 63 62 62 62 62 62 63 63 64 64 63 66 49 49 51 58 60 62 62 65 66 63 63 56 55 54 56 58 57 59 60 61 62 63 62 62 57 53 49
63 62 62 62 62 61 62 62 60 60 61 61 62 61 58 56 48 46 47 57 59 61 61 62 64 68 62 63 59 55 53 52 52 54 52 53 53 58 56 52 51 49 51
60 59 59 59 58 59 60 59 58 60 59 58 58 59 57 57 48 45 46 57 59 61 61 60 59 61 61 53 52 51 52 52 53 53 51 51 52 53 52 51 51 51 52
57 57 56 58 57 57 56 55 55 56 56 56 58 58 56 55 45 44 46 53 55 56 58 58 56 54 50 45 47 47 48 50 53 50 49 47 46 46 47 49 48 47 46
55 56 57 58 57 55 54 54 53 54 55 54 54 56 52 54 45 43 43 46 46 51 55 57 51 50 44 43 45 46 44 47 49 49 50 49 48 49 47 47 48 47 47
56 57 56 55 56 54 52 53 52 51 50 50 52 55 54 51 49 42 42 42 46 46 52 55 56 44 42 41 41 45 44 43 44 45 47 48 49 49 49 50 48 48 47
55 54 54 54 55 54 51 51 51 48 47 47 48 48 51 52 46 43 41 41 45 53 53 53 53 42 41 41 44 41 41 44 49 50 49 50 48 48 50 51 49 49 51
52 51 52 53 53 52 50 48 47 44 41 41 40 41 46 50 47 43 43 42 45 52 51 49 44 41 41 47 44 42 44 47 47 50 53 52 51 50 50 51 50 50 51
48 49 51 51 51 49 47 45 45 43 41 38 37 38 42 45 43 42 51 48 49 51 51 53 46 42 42 46 50 51 50 46 46 47 54 56 54 52 51 50 48 48 48
45 46 49 47 48 46 45 42 41 40 38 36 36 38 38 38 38 38 41 47 44 48 49 51 45 41 39 44 42 41 43 44 44 47 50 54 52 53 51 51 49 49 50
44 44 45 42 44 50 46 44 38 38 38 37 37 36 39 38 37 37 38 38 39 40 51 49 43 37 36 37 37 38 41 41 42 46 51 55 52 53 50 51 57 55 54
42 42 43 45 47 49 47 43 36 38 39 38 36 36 36 36 36 37 37 37 40 46 50 48 38 36 35 35 35 36 37 39 44 47 50 54 54 53 52 50 52 54 51
46 40 43 42 47 49 46 42 37 34 33 35 37 36 35 37 36 36 38 41 51 50 52 49 40 36 35 34 34 35 37 39 42 44 48 52 53 52 51 52 53 54 55
52 49 44 43 45 46 45 41 38 33 33 32 35 35 35 37 36 36 40 46 48 48 48 51 50 39 35 35 34 34 36 37 38 43 45 51 51 50 48 49 48 42 44
50 39 44 51 50 46 46 42 38 37 34 34 36 33 34 40 35 32 38 42 40 45 46 48 50 49 40 38 36 34 34 35 36 38 41 47 52 51 49 48 47 47 46
53 51 40 51 49 49 48 45 45 44 44 42 44 40 33 43 44 34 33 34 35 38 44 43 49 51 48 46 42 37 33 33 34 37 40 46 51 54 54 51 49 48 48
52 51 51 49 48 46 47 47 47 46 46 45 46 46 35 47 47 45 41 34 33 35 38 38 47 48 47 46 46 44 36 32 33 37 39 46 50 53 59 59 56 53 52
51 51 50 49 47 43 46 46 45 46 47 48 48 48 48 46 45 46 47 48 42 35 37 36 41 44 44 44 45 45 40 34 35 38 40 45 48 50 54 56 58 57 55
51 50 49 48 45 45 45 46 46 41 45 46 47 47 47 48 46 46 48 49 49 47 45 42 39 43 40 40 41 44 41 38 44 42 46 46 47 50 55 54 57 56 57
50 49 48 48 47 46 46 46 46 46 46 46 46 46 47 47 47 46 47 49 49 49 48 49 48 44 43 40 38 39 34 31 39 34 52 51 49 50 51 52 54 55 56
46 46 46 46 45 46 46 46 45 45 44 45 46 46 46 46 47 46 47 47 49 49 49 49 49 48 45 42 38 33 31 31 36 33 50 55 51 51 52 54 51 54 53
MSLP
1009.48 1010.00 1010.35 1010.57 1011.02 1011.84 1012.38 1012.77 1013.29 1013.47 1013.50 1013.34 1013.19 1012.90 1012.95 1012.84 1012.70 1012.52 1012.26 1012.07 1011.67 1011.41 1011.27 1010.95 1010.50 1010.26 1009.78 1009.34 1008.95 1008.50 1008.15 1007.89 1007.10 1006.53 1006.51 1006.54 1006.59 1006.30 1005.69 1005.40 1005.03 1004.70 1004.26
1010.43 1011.13 1011.61 1011.81 1012.05 1012.75 1012.52 1012.57 1013.79 1013.74 1013.97 1013.89 1013.52 1013.26 1013.02 1012.79 1012.71 1012.58 1012.35 1012.12 1011.78 1011.40 1011.02 1010.62 1010.14 1009.76 1009.45 1009.23 1009.05 1008.90 1008.51 1008.19 1007.65 1006.47 1006.48 1006.19 1005.89 1005.27 1004.95 1004.96 1004.68 1004.12 1003.78
1011.46 1012.37 1012.80 1013.35 1013.28 1012.65 1012.82 1011.88 1013.15 1013.92 1014.11 1014.12 1013.68 1013.39 1013.08 1012.97 1013.00 1012.87 1012.60 1012.18 1011.75 1011.27 1010.80 1010.31 1009.90 1009.55 1009.12 1009.06 1008.96 1008.74 1008.45 1007.65 1006.92 1006.36 1005.95 1006.01 1005.36 1004.84 1004.33 1004.10 1003.87 1003.33 1003.04
1012.05 1012.58 1012.92 1013.14 1013.30 1012.09 1012.45 1013.55 1014.17 1014.46 1014.50 1014.38 1014.01 1013.64 1013.39 1013.21 1013.01 1012.73 1012.36 1012.12 1011.63 1010.99 1010.58 1010.18 1009.83 1009.43 1008.98 1008.67 1008.59 1008.09 1007.48 1007.12 1006.89 1006.45 1005.84 1005.31 1004.73 1003.89 1003.84 1003.46 1002.76 1002.37 1001.89
1012.68 1012.73 1013.09 1013.43 1013.02 1013.55 1014.08 1014.47 1014.67 1014.67 1014.65 1014.44 1013.98 1013.60 1013.38 1013.15 1012.73 1013.42 1013.24 1012.39 1011.48 1010.74 1010.16 1009.72 1009.08 1008.87 1008.96 1009.00 1008.68 1008.01 1007.52 1006.98 1006.30 1005.49 1004.87 1004.19 1003.37 1002.85 1002.36 1002.02 1001.73 1001.76 1001.41
1013.39 1013.27 1013.43 1014.04 1013.85 1014.36 1014.60 1014.69 1014.63 1014.72 1014.67 1014.28 1013.85 1013.57 1013.36 1013.10 1013.63 1013.93 1013.77 1012.69 1011.66 1010.69 1009.89 1009.23 1008.84 1008.36 1007.83 1007.84 1007.72 1007.73 1007.47 1007.03 1006.11 1005.15 1004.18 1003.07 1002.06 1001.77 1001.77 1001.49 1001.41 1001.58 1001.51
1013.66 1014.14 1014.45 1014.41 1014.61 1014.82 1014.90 1014.80 1014.90 1014.73 1014.41 1014.14 1013.83 1013.94 1013.73 1013.87 1013.94 1013.88 1013.73 1012.73 1011.60 1010.53 1009.78 1009.14 1008.37 1007.75 1007.70 1007.19 1006.88 1006.49 1006.33 1006.00 1005.62 1004.83 1003.88 1003.03 1002.19 1001.55 1001.45 1001.47 1001.35 1001.36 1001.30
1014.74 1015.01 1015.12 1015.15 1015.24 1015.27 1015.17 1015.18 1015.12 1014.78 1014.53 1014.35 1014.17 1014.11 1013.83 1013.73 1014.02 1013.98 1013.78 1012.45 1011.34 1010.29 1009.59 1009.05 1008.48 1007.84 1007.43 1007.60 1007.12 1006.56 1005.82 1005.00 1004.27 1003.71 1003.03 1002.07 1001.50 1001.11 1001.02 1000.92 1000.90 1000.91 1000.95
1015.53 1015.67 1015.84 1015.83 1015.82 1015.80 1015.84 1015.91 1015.66 1015.40 1014.99 1014.76 1014.40 1014.11 1013.94 1013.88 1014.16 1014.12 1013.74 1012.61 1011.39 1010.43 1009.64 1009.01 1008.59 1008.13 1007.77 1007.54 1007.07 1005.95 1004.74 1003.60 1003.16 1002.63 1002.05 1001.38 1000.78 1000.34 1000.30 1000.45 1000.07 1000.32 1000.11
1016.37 1016.37 1016.39 1016.32 1016.31 1016.36 1016.49 1016.24 1016.13 1015.80 1015.18 1015.18 1014.64 1014.15 1014.23 1014.15 1014.23 1014.28 1013.95 1012.95 1011.80 1010.73 1009.72 1008.70 1008.10 1008.05 1007.80 1007.49 1006.76 1005.53 1004.29 1003.23 1002.37 1001.36 1000.60 999.96 999.40 998.94 998.91 999.28 999.33 999.42 999.61
1017.01 1016.95 1016.96 1016.97 1016.72 1016.96 1016.96 1016.81 1016.68 1016.46 1016.18 1015.56 1014.92 1014.58 1014.52 1014.64 1014.43 1014.16 1013.70 1013.09 1012.05 1010.94 1009.70 1008.57 1008.17 1008.08 1007.74 1006.97 1006.12 1005.20 1004.50 1003.15 1001.54 1000.59 999.67 998.89 998.56 998.32 997.82 997.81 998.32 998.56 998.78
1017.53 1017.58 1017.71 1017.52 1017.26 1017.35 1017.32 1017.15 1017.06 1017.02 1016.65 1016.29 1015.89 1015.50 1015.12 1014.59 1014.54 1014.34 1013.72 1012.98 1011.99 1010.49 1009.73 1009.24 1008.50 1008.17 1007.32 1006.13 1005.20 1004.58 1003.48 1002.19 1001.07 999.96 999.28 998.46 998.11 997.80 997.48 997.47 997.77 998.12 998.49
1018.34 1018.20 1017.95 1017.93 1017.84 1017.71 1017.63 1017.64 1017.66 1017.88 1017.80 1017.48 1017.15 1016.56 1015.67 1015.04 1014.81 1014.41 1013.49 1012.72 1011.81 1010.71 1010.42 1009.64 1008.83 1008.23 1007.26 1005.76 1004.99 1004.19 1003.11 1002.18 1001.31 999.85 998.89 998.43 998.08 998.03 997.81 997.63 997.88 998.21 998.67
1019.02 1018.76 1018.56 1018.32 1018.24 1018.50 1018.51 1018.64 1018.54 1018.68 1018.66 1018.50 1018.01 1017.46 1016.72 1016.01 1015.55 1014.95 1013.47 1012.66 1011.71 1010.91 1010.22 1009.43 1009.23 1008.59 1007.68 1006.44 1005.10 1004.13 1003.58 1002.95 1001.98 1000.66 999.08 998.43 998.09 997.90 997.85 997.97 998.10 998.45 998.67
1019.58 1019.46 1019.09 1019.20 1018.99 1019.03 1019.26 1019.60 1019.55 1019.94 1019.92 1019.49 1019.16 1018.44 1017.64 1017.02 1016.82 1016.14 1015.01 1013.76 1012.99 1011.85 1010.85 1009.95 1009.29 1008.59 1007.96 1007.12 1006.36 1005.62 1004.55 1003.41 1002.17 1001.11 999.82 998.40 998.39 998.13 998.24 998.45 998.60 998.72 998.63
1020.12 1020.05 1020.09 1020.02 1019.79 1019.20 1019.37 1019.70 1020.31 1020.38 1020.38 1020.33 1019.97 1019.34 1018.58 1018.38 1017.51 1016.35 1015.34 1014.32 1013.23 1012.21 1011.16 1010.70 1010.72 1010.48 1009.94 1009.10 1008.07 1006.76 1005.51 1004.29 1003.17 1001.57 999.69 998.29 998.41 998.50 998.47 998.55 998.42 998.34 998.46
1020.80 1020.81 1020.67 1020.23 1019.96 1019.64 1019.78 1020.15 1020.52 1020.60 1020.67 1020.62 1020.18 1019.64 1019.31 1018.82 1017.76 1016.72 1015.73 1014.72 1013.59 1012.06 1011.63 1011.77 1012.08 1011.78 1011.22 1010.45 1009.57 1008.40 1007.03 1005.59 1004.08 1002.52 1000.85 999.50 999.07 998.96 998.62 998.97 998.86 998.92 999.30
1021.00 1021.53 1021.21 1020.96 1020.40 1020.19 1020.45 1020.88 1021.14 1021.24 1021.08 1020.68 1020.39 1020.19 1019.60 1018.90 1018.26 1017.32 1016.12 1014.59 1013.56 1012.87 1012.48 1012.45 1012.70 1012.69 1012.25 1011.51 1010.64 1009.41 1007.95 1006.46 1005.14 1003.66 1002.25 1000.93 1000.18 999.79 999.57 999.77 999.70 999.63 999.64
1020.70 1021.04 1021.35 1021.33 1021.18 1020.79 1021.12 1021.43 1021.69 1021.98 1021.79 1021.52 1021.06 1020.52 1020.03 1019.47 1018.92 1018.19 1017.00 1015.94 1015.13 1014.40 1014.06 1013.26 1012.86 1012.93 1012.86 1012.30 1011.64 1010.52 1009.36 1008.13 1006.93 1005.18 1003.74 1002.30 1001.51 1000.93 1000.67 1000.68 1000.59 1000.53 1000.40
1021.53 1022.10 1021.44 1020.77 1020.93 1021.38 1021.32 1021.65 1022.00 1022.01 1021.91 1021.62 1021.13 1021.12 1020.52 1019.44 1019.22 1018.85 1018.19 1017.82 1017.38 1016.39 1015.57 1014.73 1013.86 1013.21 1013.16 1012.68 1012.06 1011.39 1010.04 1008.96 1007.64 1006.56 1005.32 1003.75 1002.64 1002.08 1001.87 1001.59 1001.51 1001.55 1001.62
1021.44 1021.78 1021.93 1021.38 1021.48 1021.43 1021.52 1021.86 1021.95 1021.92 1021.67 1021.39 1020.97 1021.68 1020.96 1019.88 1019.66 1020.15 1019.96 1019.54 1019.17 1018.40 1017.36 1016.74 1015.31 1014.39 1013.83 1013.13 1012.65 1012.12 1011.87 1010.66 1009.53 1008.26 1006.88 1005.20 1003.89 1002.91 1002.59 1002.43 1002.19 1002.09 1002.17
1022.04 1022.04 1022.04 1022.16 1022.34 1022.34 1022.24 1022.19 1022.03 1021.98 1021.81 1021.56 1021.22 1021.17 1021.20 1020.39 1019.96 1019.79 1019.73 1020.16 1020.16 1019.81 1019.35 1018.77 1016.96 1016.09 1015.31 1014.51 1013.74 1013.08 1012.80 1012.35 1011.08 1009.71 1008.41 1006.83 1005.47 1004.45 1003.54 1003.02 1002.88 1002.74 1002.60
1022.60 1022.52 1022.59 1022.74 1022.91 1022.99 1022.72 1022.83 1022.86 1022.47 1022.07 1021.75 1021.40 1021.13 1020.98 1020.94 1020.97 1020.45 1019.94 1019.62 1019.80 1020.22 1019.96 1019.53 1018.43 1017.65 1017.12 1016.40 1015.49 1014.64 1014.25 1013.77 1012.81 1011.39 1009.81 1008.38 1007.07 1006.02 1005.01 1004.15 1003.69 1003.57 1003.66
1023.39 1023.33 1023.17 1023.36 1023.71 1023.59 1023.36 1023.20 1023.11 1023.25 1022.85 1022.46 1022.15 1021.92 1021.71 1021.42 1021.28 1021.09 1020.65 1020.12 1019.58 1019.34 1019.17 1019.28 1019.24 1018.41 1018.24 1017.90 1017.23 1016.12 1015.73 1015.17 1013.26 1012.08 1010.60 1009.67 1008.61 1007.44 1006.23 1005.62 1005.01 1004.61 1004.20
1024.29 1024.21 1024.16 1024.02 1024.01 1023.94 1023.84 1023.83 1023.72 1023.60 1023.37 1023.15 1022.89 1022.67 1022.49 1022.22 1021.90 1021.59 1021.16 1020.63 1020.11 1019.75 1019.47 1019.17 1018.83 1018.65 1018.47 1018.19 1018.04 1017.59 1016.94 1015.72 1014.18 1013.29 1010.73 1010.06 1009.54 1008.72 1007.92 1007.12 1006.28 1005.81 1005.41
1025.48 1025.36 1025.28 1025.23 1025.16 1024.86 1024.61 1024.42 1024.39 1024.29 1024.09 1023.85 1023.69 1023.44 1023.25 1022.91 1022.55 1022.33 1021.74 1021.34 1020.77 1020.29 1020.00 1019.62 1019.41 1018.92 1018.82 1018.78 1018.69 1018.19 1017.44 1016.46 1015.20 1013.74 1011.76 1010.58 1010.22 1009.50 1008.99 1008.13 1007.83 1007.14 1006.73
Wind_Speed
15 13 13 13 14 11 10 10 8 7 6 6 5 5 5 6 6 7 8 10 11 11 12 12 13 13 11 12 11 12 12 12 16 14 12 11 15 16 16 16 17 15 14
13 12 11 12 12 10 10 11 6 6 6 6 6 6 7 8 8 9 11 12 13 14 14 14 15 11 14 13 11 12 12 14 14 20 15 14 15 16 13 13 14 14 13
12 11 10 8 8 10 9 13 11 9 9 9 8 8 9 9 10 10 11 13 13 13 13 14 15 15 13 11 13 11 13 14 14 14 14 14 16 15 13 12 12 14 12
11 11 11 10 9 14 13 9 6 6 7 8 8 8 8 9 10 11 10 12 13 13 14 14 15 15 16 15 14 14 15 12 11 11 13 13 13 14 11 12 12 11 10
10 12 12 10 11 10 7 5 5 6 7 8 8 8 9 9 6 10 13 14 14 15 14 15 15 14 15 16 14 17 17 14 13 13 13 13 14 13 13 11 10 10 12
9 11 11 9 9 8 7 6 5 6 6 7 7 9 11 8 10 8 12 14 15 15 14 15 15 16 16 15 18 23 21 18 19 16 16 17 19 15 13 12 9 8 8
12 11 9 9 8 7 7 6 7 6 7 8 9 10 9 10 7 8 11 13 14 14 15 15 15 13 14 16 17 14 16 20 25 20 19 18 19 18 14 13 9 8 10
11 10 10 9 8 8 8 8 8 8 8 8 8 9 9 7 7 8 13 14 13 15 15 15 15 17 15 13 15 17 18 17 17 13 16 17 17 17 16 12 10 8 8
10 10 9 8 8 8 8 8 8 8 8 8 7 9 9 9 9 12 15 13 13 14 14 15 14 13 14 15 16 17 17 16 14 19 23 26 27 28 24 9 8 8 6
9 8 8 8 8 8 8 8 9 9 9 8 9 9 8 10 10 13 13 9 11 11 13 13 10 8 14 19 15 13 14 14 15 17 15 15 15 15 21 15 11 9 6
8 8 9 9 6 8 7 7 8 8 9 9 10 9 9 10 10 12 18 10 8 9 10 10 11 14 19 19 16 9 14 18 18 12 11 9 7 7 6 7 10 9 8
8 8 7 7 7 7 8 8 9 10 11 11 11 9 8 9 10 14 17 16 16 10 10 11 13 20 21 19 12 20 20 15 9 8 7 6 5 4 3 3 6 7 6
6 7 8 8 9 8 8 9 7 9 8 8 8 8 9 9 10 16 18 10 17 10 10 12 14 18 19 17 19 15 15 11 10 9 7 6 5 4 4 1 4 5 4
8 8 8 9 9 10 8 8 7 8 8 8 8 8 9 10 11 12 12 11 15 12 14 11 13 15 15 14 16 17 14 11 11 10 10 5 4 4 4 3 3 4 4
8 7 8 7 9 8 8 8 7 9 10 8 9 8 9 11 13 16 14 12 11 13 11 11 13 15 15 16 14 13 12 12 12 11 11 4 3 4 4 4 4 2 3
8 7 8 7 6 6 7 6 10 10 10 14 13 14 9 14 20 21 19 18 18 17 11 14 14 13 13 14 14 14 12 16 12 12 12 6 4 3 2 2 2 2 5
9 7 6 5 6 8 8 8 8 7 8 11 18 18 19 16 20 21 20 15 15 11 12 14 12 12 13 12 13 12 13 13 15 12 11 9 6 3 5 1 0 4 6
7 9 7 7 7 8 8 8 8 8 8 9 13 15 19 17 20 21 20 12 11 14 12 12 10 11 12 13 13 13 14 13 13 13 12 11 9 7 6 5 5 4 4
7 6 6 6 7 7 8 7 8 8 7 7 9 12 17 17 17 18 19 14 13 13 13 13 13 9 11 11 11 12 13 13 13 13 14 11 11 9 9 8 7 10 8
9 8 5 6 6 7 7 7 6 6 5 5 6 8 8 7 12 13 13 14 14 13 13 14 14 13 12 12 12 13 14 14 14 13 13 13 9 7 9 9 8 6 6
6 7 4 7 8 7 7 7 7 7 8 7 8 11 14 8 10 10 10 11 12 12 14 13 14 15 15 14 14 13 13 14 14 14 14 14 13 11 8 8 7 6 6
6 6 7 8 7 8 8 7 7 6 7 7 7 8 7 10 10 10 9 8 9 9 11 12 13 14 15 16 16 16 14 15 15 15 15 14 13 13 11 12 10 9 9
8 8 8 7 7 6 7 8 8 8 8 9 9 9 10 10 10 11 11 10 8 7 9 9 12 14 14 15 16 16 16 15 13 13 14 14 13 13 11 10 10 11 12
8 8 8 8 8 8 8 8 7 7 9 10 10 10 10 10 10 11 11 11 11 10 9 9 9 16 14 14 15 16 16 16 15 14 15 12 12 15 12 12 11 12 8
9 8 9 8 8 8 7 8 8 9 9 9 9 10 10 10 11 11 11 11 11 11 12 12 12 13 18 21 22 25 23 24 22 20 13 12 15 17 13 12 12 10 13
9 9 8 8 8 8 8 8 9 8 9 9 9 9 10 10 10 11 11 13 12 12 14 11 15 20 21 18 22 22 23 24 23 26 15 14 14 13 13 14 17 12 12
Wind_Direction
106 105 101 95 92 87 86 79 53 45 24 11 357 341 322 311 314 309 300 290 282 286 282 277 279 283 281 283 285 286 284 288 284 281 283 285 277 270 278 286 285 290 289
93 89 87 92 100 93 83 72 45 34 359 340 335 325 314 313 315 308 300 298 291 288 288 288 285 285 282 276 278 279 279 283 284 287 288 291 275 273 274 280 280 283 288
102 101 93 86 85 82 62 55 25 360 342 331 331 322 322 319 307 297 290 289 289 288 290 289 289 288 283 279 279 281 280 277 280 292 294 291 293 291 288 274 263 273 276
90 84 75 59 46 50 45 32 5 339 319 316 317 313 313 310 307 296 312 306 299 295 294 288 282 281 280 282 274 270 275 278 274 271 275 271 273 282 281 279 277 268 277
74 67 53 49 51 46 39 12 342 321 317 313 315 319 320 317 336 343 321 307 300 296 293 287 282 289 307 291 284 286 289 285 283 281 278 278 272 271 265 271 272 278 276
88 72 53 37 42 33 16 356 338 326 321 318 329 327 324 315 53 2 323 308 301 296 296 297 295 289 274 259 253 251 258 273 274 274 272 272 276 274 266 271 265 262 274
60 55 45 34 33 22 8 358 351 338 336 333 335 343 341 333 13 337 326 310 302 294 295 296 297 299 304 294 293 289 269 258 253 265 270 269 275 277 283 283 262 249 255
53 47 38 30 24 14 6 2 351 344 341 339 338 325 328 333 353 345 338 302 311 301 304 303 297 298 311 327 312 296 283 273 270 263 258 263 265 270 264 261 260 251 250
49 43 37 29 27 20 15 2 357 343 338 332 324 319 334 334 37 11 343 320 310 306 308 312 316 311 312 315 303 293 289 285 283 270 263 264 263 262 257 261 233 223 235
45 44 37 30 29 23 11 6 358 349 351 336 331 341 357 340 27 354 334 325 315 319 319 312 293 308 311 308 306 306 303 306 306 294 286 275 266 261 250 238 239 230 215
39 36 32 25 15 29 14 17 7 4 357 352 347 349 353 3 345 345 337 333 322 315 313 331 330 350 330 319 313 312 308 297 299 294 286 282 282 267 258 221 219 215 207
35 34 28 24 28 30 23 20 19 12 2 2 1 353 354 353 12 342 330 314 309 310 351 337 333 342 326 314 328 324 314 314 325 299 298 311 296 292 293 240 197 201 208
35 37 34 32 34 30 34 23 24 18 12 7 0 354 353 356 358 344 325 340 343 353 347 329 331 338 342 347 339 326 340 344 332 319 344 349 348 340 328 77 141 157 155
39 27 35 42 36 38 34 32 28 21 18 7 3 355 357 357 360 350 347 355 3 354 349 0 1 351 356 348 358 359 353 343 331 329 337 19 10 20 48 70 88 113 136
48 32 39 26 43 43 56 41 29 52 32 13 11 1 5 6 356 346 353 357 345 338 341 11 8 7 2 357 353 347 341 344 342 334 319 333 10 46 74 105 94 92 107
46 37 33 37 13 49 46 56 66 32 45 31 22 25 12 7 356 1 354 340 330 330 24 22 14 4 359 350 349 344 345 344 340 328 325 2 57 29 70 33 106 163 160
43 40 28 44 26 43 37 40 22 18 20 28 25 19 10 3 3 4 354 331 331 354 30 24 15 1 355 352 348 344 338 337 333 342 346 0 31 43 29 160 233 95 83
62 56 44 36 26 43 42 38 36 19 9 6 19 15 4 5 8 1 356 324 27 24 20 20 18 2 357 354 350 345 343 344 352 348 353 5 17 22 34 40 33 47 45
32 52 66 50 43 28 57 41 45 26 19 8 11 13 5 10 13 8 15 22 21 21 11 10 13 12 0 351 351 347 346 347 347 352 358 4 16 21 28 33 47 36 38
81 21 9 53 61 55 38 52 37 28 22 9 32 10 345 8 20 15 19 25 19 12 15 359 4 9 4 0 360 355 350 354 354 354 348 350 15 35 38 33 33 52 55
59 70 11 56 46 44 48 46 29 26 21 24 38 24 339 13 40 27 19 18 16 7 12 352 8 4 4 4 2 5 0 351 352 352 347 350 356 21 42 44 35 45 44
56 54 53 53 48 45 41 33 32 38 38 32 24 45 350 23 25 25 33 32 17 6 14 357 5 8 5 4 2 1 3 357 347 348 344 350 355 356 22 37 39 38 38
55 58 59 57 59 47 49 48 30 21 29 30 22 25 25 35 20 16 14 19 38 19 9 10 2 8 11 6 3 5 4 356 337 343 337 350 353 356 3 13 32 47 46
56 54 57 69 42 52 37 45 45 54 31 30 28 29 24 23 28 22 16 15 14 21 16 25 13 14 14 13 5 4 4 355 342 347 337 359 357 356 7 5 19 23 38
48 51 51 46 48 47 52 40 42 35 34 32 30 27 26 22 22 19 19 13 13 15 16 13 13 19 13 15 12 5 358 350 344 343 341 14 4 11 8 11 6 26 24
52 46 47 43 40 32 37 37 39 32 29 29 23 25 24 21 19 18 13 15 9 12 11 13 11 8 21 14 7 0 357 352 349 339 337 9 16 13 6 18 17 16 23